Raleigh-Durham Airport, NC

4:49 AM EST on November 22, 2017 (GMT -0500)
Raleigh-Durham International

Weather History for KRDU - May, 2014

Change the Weather History Date:

Saturday, May 10, 2014

  Actual Average Record
Temperature  
Mean Temperature 75 °F 66 °F  
Max Temperature 86 °F 78 °F 94 °F (1896)
Min Temperature 64 °F 55 °F 31 °F (1977)
Degree Days  
Heating Degree Days 0 2  
Month to date heating degree days 6 28  
Since 1 July heating degree days 3457 3217  
Cooling Degree Days 10 4  
Month to date cooling degree days 44 31  
Year to date cooling degree days 75 92  
Growing Degree Days 25 (Base 50)    
Moisture  
Dew Point 61 °F    
Average Humidity 64    
Maximum Humidity 81    
Minimum Humidity 46    
Precipitation  
Precipitation T in 0.10 in 1.72 in (1905)
Month to date precipitation 0.07 0.95  
Year to date precipitation 15.32 14.71  
Sea Level Pressure  
Sea Level Pressure 30.07 in    
Wind  
Wind Speed 9 mph (SW)    
Max Wind Speed 23 mph    
Max Gust Speed 29 mph    
Visibility 10 miles    
Events Rain    
T = Trace of Precipitation, MM = Missing Value Source: NWS Daily Summary

Daily Weather History Graph

Daily Weather History Graph

Search for Another Location

Airport or City:

Trip Planner

Search our weather history database for the weather conditions in past years. The results will help you decide how hot, cold, wet, or windy it might be!

Date:

Astronomy

May. 10, 2014 Rise Set
Actual Time 6:13 AM EDT 8:09 PM EDT
Civil Twilight 5:45 AM EDT 8:37 PM EDT
Nautical Twilight 5:11 AM EDT 9:12 PM EDT
Astronomical Twilight 4:35 AM EDT 9:48 PM EDT
Moon 4:11 PM EDT (5/10) 3:37 AM EDT (5/10)
Length of Visible Light 14h 52m
Length of Day
13h 55m
Waxing Gibbous, 82% of the Moon is Illuminated
May 10
Waxing Gibbous
May 14
Full
May 21
Last Quarter
May 28
New
Jun 5
First Quarter

Hourly Weather History & Observations

Time (EDT) Temp. Heat Index Dew Point Humidity Pressure Visibility Wind Dir Wind Speed Gust Speed Precip Events Conditions
12:51 AM 68.0 °F - 61.0 °F 78% 30.08 in 10.0 mi SW 4.6 mph - N/A   Overcast
1:51 AM 68.0 °F - 61.0 °F 78% 30.06 in 10.0 mi South 3.5 mph - N/A   Overcast
2:51 AM 68.0 °F - 62.1 °F 81% 30.05 in 10.0 mi SSW 4.6 mph - N/A   Overcast
3:51 AM 68.0 °F - 61.0 °F 78% 30.05 in 10.0 mi Calm Calm - N/A   Overcast
4:51 AM 66.9 °F - 61.0 °F 81% 30.06 in 10.0 mi SW 5.8 mph - N/A   Overcast
5:51 AM 66.0 °F - 60.1 °F 81% 30.08 in 10.0 mi SW 5.8 mph - N/A   Overcast
6:51 AM 68.0 °F - 60.1 °F 76% 30.10 in 10.0 mi SSW 9.2 mph - N/A   Overcast
7:51 AM 70.0 °F - 62.1 °F 76% 30.12 in 10.0 mi SW 8.1 mph - N/A   Mostly Cloudy
8:51 AM 73.0 °F - 64.0 °F 73% 30.12 in 10.0 mi SW 11.5 mph - N/A   Mostly Cloudy
9:51 AM 73.9 °F - 64.9 °F 73% 30.11 in 10.0 mi SW 11.5 mph - N/A   Mostly Cloudy
10:51 AM 78.8 °F - 68.0 °F 69% 30.11 in 10.0 mi SW 8.1 mph - N/A   Mostly Cloudy
11:51 AM 81.0 °F 83.0 °F 66.0 °F 60% 30.09 in 10.0 mi SW 16.1 mph - N/A   Mostly Cloudy
12:51 PM 84.0 °F 86.5 °F 66.9 °F 56% 30.08 in 10.0 mi SW 13.8 mph 21.9 mph N/A   Mostly Cloudy
1:51 PM 84.9 °F 87.6 °F 66.9 °F 55% 30.06 in 10.0 mi SW 15.0 mph - N/A   Mostly Cloudy
2:51 PM 86.0 °F 87.6 °F 64.9 °F 49% 30.03 in 10.0 mi WSW 17.3 mph 28.8 mph N/A   Mostly Cloudy
3:51 PM 86.0 °F 87.3 °F 64.0 °F 48% 30.00 in 10.0 mi SW 20.7 mph - N/A   Mostly Cloudy
4:51 PM 82.0 °F 82.1 °F 59.0 °F 45% 29.99 in 10.0 mi SW 16.1 mph - N/A   Overcast
5:51 PM 75.0 °F - 55.9 °F 51% 30.05 in 10.0 mi WNW 13.8 mph 23.0 mph N/A   Overcast
6:51 PM 70.0 °F - 55.9 °F 61% 30.06 in 10.0 mi Variable 4.6 mph - N/A   Overcast
7:51 PM 69.1 °F - 57.0 °F 65% 30.07 in 10.0 mi West 5.8 mph 16.1 mph 0.00 in Rain Light Rain
8:51 PM 69.1 °F - 57.0 °F 65% 30.05 in 10.0 mi SSW 3.5 mph - 0.00 in   Overcast
9:51 PM 68.0 °F - 57.9 °F 70% 30.07 in 10.0 mi SW 4.6 mph - N/A   Overcast
10:51 PM 66.9 °F - 57.0 °F 70% 30.07 in 10.0 mi SW 5.8 mph - N/A   Overcast
11:51 PM 66.9 °F - 55.9 °F 68% 30.06 in 10.0 mi SSW 6.9 mph - N/A   Mostly Cloudy